Tracking 21076 objects as of 7-Aug-2020
HD Live streaming from Space Station
objects crossing your sky now

SL-12 DEB

Track SL-12 DEB now!
10-day predictions


NORAD ID: 45493
Int'l Code: 2010-041AP
Perigee: 340.0 km
Apogee: 18,724.6 km
Inclination: 64.9 °
Period: 332.7 minutes
Semi major axis: 15903 km
RCS: Unknown
Launch date: September 2, 2010
Source: Commonwealth of Independent States (former USSR) (CIS)
Launch site: TYURATAM MISSILE AND SPACE COMPLEX (TTMTR)

Note: This is SATELLITE DEBRIS
aabbcc
Your satellite tracking list
Your tracking list is empty




NASA's NSSDC Master Catalog

Two Line Element Set (TLE):
1 45493U 10041AP  20219.21769751  .00008883  00000-0  35447-2 0  9995
2 45493  64.8828 157.4284 5780107  21.6491 355.1381  4.32885109 13050
Source of the keplerian elements: AFSPC